Tracking 35036 objects as of 15-Aug-2026
HD Live streaming from Space Station
objects crossing your sky now

STARLINK-38081


10-day predictions
STARLINK-38081 is classified as:


NORAD ID: 100153
Int'l Code: 2026-171F
Launch date: July 25, 2026
Source: United States (US)
Launch site: AIR FORCE WESTERN TEST RANGE (AFWTR)
Your satellite tracking list
Your tracking list is empty




NASA's NSSDC Master Catalog

Two Line Element Set (TLE):
1 A0153U 26171F   26227.59272386  .00204494  00000-0  13351-2 0  9995
2 A0153  97.2826 259.4911 0001216  57.0628 303.0754 15.75263449  3320
Source of the keplerian elements: AFSPC